User: anonymous   Login
Location: Unspecified
(0.0000°N, 0.0000°E)
Time: 17:18:53
(UTC+00:00)
Language:

COSMOS 2489 - Orbit

View from above orbital plane
View from above orbital plane
View from above satellite
View from above satellite

Ground track
Ground track

The orbit data is extracted from the following two-line orbital elements,

1 39484U 13076B   18112.73829935  .00000014  00000-0  25619-4 0  9996
2 39484  82.4887 224.6950 0023199 106.4318 253.9319 12.42885912196271
Epoch (UTC): 22 April 2018 17:43:09
Eccentricity: 0.0023199
inclination: 82.4887°
perigee height: 1476 km
apogee height: 1512 km
right ascension of ascending node: 224.6950°
argument of perigee: 106.4318°
revolutions per day: 12.42885912
mean anomaly at epoch: 253.9319°
orbit number at epoch: 19627

The dashed part of the orbit path shows where the satellite is in the earth's shadow,  

DLR